UAL2319 KIAH-KMSY

Flight info

Callsign UAL2319
Flight time 0h 44m
Altitude 31000
Route MMUGS4 GUSTI AWDAD AWDAD1
Aircraft B38M/M-SDE1FGHILORVWXY/HB1

Departure

Time 2025-09-10 05:25
Airport George Bush Intercontinental Airport (KIAH)

Arrival

Time 2025-09-10 06:09
Airport Louis Armstrong New Orleans International Airport (KMSY)
Time Latitude Longitude Altitude Speed Heading
2025-09-10 05:13 29.98531 -95.33398 101 ft 0 kts
2025-09-10 05:14 29.98471 -95.33395 100 ft 2 kts 291°
2025-09-10 05:15 29.98479 -95.33380 101 ft 0 kts 207°
2025-09-10 05:17 29.98443 -95.33394 100 ft 9 kts 188°
2025-09-10 05:17 29.98355 -95.33398 99 ft 14 kts 182°
2025-09-10 05:18 29.98310 -95.33654 100 ft 13 kts 275°
2025-09-10 05:18 29.98318 -95.33882 101 ft 13 kts 271°
2025-09-10 05:19 29.98359 -95.34068 101 ft 11 kts 300°
2025-09-10 05:19 29.98375 -95.34249 101 ft 11 kts 270°
2025-09-10 05:20 29.98352 -95.34454 101 ft 12 kts 237°
2025-09-10 05:20 29.98325 -95.34699 98 ft 19 kts 266°
2025-09-10 05:21 29.98323 -95.35004 98 ft 18 kts 270°
2025-09-10 05:21 29.98328 -95.35150 98 ft 16 kts 295°
2025-09-10 05:22 29.98614 -95.35345 98 ft 15 kts 333°
2025-09-10 05:22 29.98781 -95.35447 98 ft 11 kts 332°
2025-09-10 05:23 29.98794 -95.35555 98 ft 7 kts 253°
2025-09-10 05:23 29.98739 -95.35684 98 ft 9 kts 242°
2025-09-10 05:24 29.98639 -95.35707 98 ft 12 kts 150°
2025-09-10 05:24 29.98014 -95.35316 98 ft 115 kts 152°
2025-09-10 05:25 29.96200 -95.34061 942 ft 160 kts 143°
2025-09-10 05:25 29.95382 -95.33156 1352 ft 173 kts 124°
2025-09-10 05:26 29.92901 -95.29605 3040 ft 207 kts 127°
2025-09-10 05:26 29.89791 -95.25208 4095 ft 264 kts 127°
2025-09-10 05:27 29.88525 -95.23387 4069 ft 267 kts 125°
2025-09-10 05:27 29.86246 -95.19715 4987 ft 282 kts 124°
2025-09-10 05:28 29.84021 -95.16125 5061 ft 269 kts 124°
2025-09-10 05:28 29.82922 -95.14265 5065 ft 266 kts 117°
2025-09-10 05:28 29.82206 -95.09834 6110 ft 273 kts 91°
2025-09-10 05:29 29.81876 -95.00890 9324 ft 285 kts 90°
2025-09-10 05:30 29.81803 -94.98526 10095 ft 288 kts 87°
2025-09-10 05:30 29.82059 -94.93707 11014 ft 315 kts 83°
2025-09-10 05:31 29.82440 -94.88325 11757 ft 346 kts 84°
2025-09-10 05:31 29.82841 -94.82235 12355 ft 377 kts 84°
2025-09-10 05:32 29.83229 -94.76146 13453 ft 386 kts 84°
2025-09-10 05:32 29.83675 -94.69737 14564 ft 394 kts 84°
2025-09-10 05:33 29.84135 -94.63236 15654 ft 402 kts 84°
2025-09-10 05:33 29.84815 -94.53372 17109 ft 414 kts 83°
2025-09-10 05:34 29.85058 -94.49940 17575 ft 418 kts 83°
2025-09-10 05:34 29.85757 -94.39696 18970 ft 429 kts 84°
2025-09-10 05:35 29.85996 -94.36198 19437 ft 432 kts 84°
2025-09-10 05:35 29.86262 -94.28863 20379 ft 439 kts 90°
2025-09-10 05:36 29.86027 -94.21758 21259 ft 445 kts 91°
2025-09-10 05:36 29.85777 -94.14444 22139 ft 450 kts 91°
2025-09-10 05:37 29.85531 -94.07013 22946 ft 455 kts 90°
2025-09-10 05:37 29.86281 -93.96082 24019 ft 462 kts 82°
2025-09-10 05:38 29.87124 -93.88452 24759 ft 467 kts 82°
2025-09-10 05:39 29.88332 -93.77242 25786 ft 474 kts 82°
2025-09-10 05:41 29.91569 -93.46358 28404 ft 487 kts 82°
2025-09-10 05:43 29.94770 -93.15048 30961 ft 485 kts 82°
2025-09-10 05:45 29.97821 -92.83482 31025 ft 483 kts 83°
2025-09-10 05:47 30.00313 -92.51887 31035 ft 483 kts 84°
2025-09-10 05:49 30.02702 -92.20969 30549 ft 457 kts 84°
2025-09-10 05:50 30.04487 -91.97543 23771 ft 480 kts 84°
2025-09-10 05:51 30.05068 -91.89597 22218 ft 464 kts 84°
2025-09-10 05:51 30.05606 -91.82295 20654 ft 454 kts 84°
2025-09-10 05:52 30.06161 -91.74699 19064 ft 442 kts 84°
2025-09-10 05:52 30.06654 -91.67696 18496 ft 409 kts 84°
2025-09-10 05:53 30.07118 -91.61209 18158 ft 410 kts 83°
2025-09-10 05:53 30.07882 -91.50687 15774 ft 421 kts 83°
2025-09-10 05:54 30.08113 -91.47382 14984 ft 418 kts 84°
2025-09-10 05:54 30.08579 -91.40616 13553 ft 406 kts 84°
2025-09-10 05:55 30.09045 -91.33884 12060 ft 395 kts 85°
2025-09-10 05:55 30.09460 -91.27815 11498 ft 365 kts 85°
2025-09-10 05:56 30.09862 -91.21883 10976 ft 339 kts 85°
2025-09-10 05:56 30.10056 -91.19089 10805 ft 324 kts 84°
2025-09-10 05:56 30.10395 -91.14105 10529 ft 299 kts 85°
2025-09-10 05:57 30.10715 -91.09333 9994 ft 287 kts 85°
2025-09-10 05:58 30.11185 -91.02343 8884 ft 281 kts 84°
2025-09-10 05:58 30.11482 -90.97882 8218 ft 276 kts 84°
2025-09-10 05:59 30.11507 -90.93265 7497 ft 272 kts 94°
2025-09-10 05:59 30.11163 -90.88937 6907 ft 262 kts 96°
2025-09-10 06:00 30.10832 -90.84734 6230 ft 257 kts 95°
2025-09-10 06:00 30.10665 -90.82596 5836 ft 256 kts 94°
2025-09-10 06:00 30.10330 -90.78355 5557 ft 259 kts 95°
2025-09-10 06:01 30.09999 -90.74218 5405 ft 259 kts 95°
2025-09-10 06:02 30.09464 -90.67542 5229 ft 258 kts 95°
2025-09-10 06:02 30.08963 -90.61367 5089 ft 257 kts 95°
2025-09-10 06:03 30.08701 -90.59191 4937 ft 260 kts 104°
2025-09-10 06:03 30.06913 -90.55238 4463 ft 272 kts 120°
2025-09-10 06:03 30.05942 -90.53398 4315 ft 269 kts 117°
2025-09-10 06:04 30.04743 -90.49410 4199 ft 247 kts 103°
2025-09-10 06:04 30.03868 -90.45660 3997 ft 205 kts 104°
2025-09-10 06:05 30.02448 -90.39730 2681 ft 183 kts 104°
2025-09-10 06:06 30.02080 -90.38197 2209 ft 188 kts 104°
2025-09-10 06:06 30.01407 -90.35388 1899 ft 154 kts 104°
2025-09-10 06:07 30.00782 -90.32864 1192 ft 156 kts 105°
2025-09-10 06:07 30.00203 -90.30428 709 ft 155 kts 105°
2025-09-10 06:08 29.99616 -90.27927 25 ft 156 kts 105°
2025-09-10 06:08 29.99346 -90.26831 12 ft 135 kts 105°
2025-09-10 06:09 29.99203 -90.25570 12 ft 13 kts 72°
2025-09-10 06:09 29.99260 -90.25525 12 ft 10 kts
2025-09-10 06:10 29.99360 -90.25451 12 ft 2 kts 94°